Location: Unnamed
(45.3580°N, 90.2245°W)
Time: 11:59:36
(UTC-05:00)

Envisat - Pass Details

Date: 11 March 2021
Orbit: 764 x 766 km, 98.1° (Epoch: 21 April)

Event Time Altitude Azimuth Distance (km) Brightness Sun altitude
Rises 05:41:19 0° 14° (NNE) 3,244 6.5 -7.7°
Reaches altitude 10° 05:43:38 10° 15° (NNE) 2,313 5.7 -7.3°
Maximum altitude 05:48:45 80° 103° (ESE) 782 3.2 -6.4°
Drops below altitude 10° 05:53:49 10° 191° (S) 2,294 5.4 -5.5°
Sets 05:56:07 0° 192° (SSW) 3,216 6.1 -5.1°
